{"data":{"norad_id":63226,"epoch":"2026-05-25T03:36:30.659040Z","epoch_age_seconds":52303,"freshness":"FRESH","line1":"1 63226U 25052S   26145.15035485  .00003596  00000+0  16103-3 0  9998","line2":"2 63226  97.3991  38.0665 0004146 204.9377 155.1659 15.21890171 66339","mean_motion":15.21890171,"eccentricity":0.0004146,"inclination_deg":97.3991,"raan_deg":38.0665,"arg_perigee_deg":204.9377,"mean_anomaly_deg":155.1659,"bstar":0.00016103,"rev_number":6633,"period_min":94.619179980235,"perigee_km":497.28781633798,"apogee_km":502.99128325308,"semimajor_km":6878.2765497955,"source":"CELESTRAK","updated_at":"2026-05-25T13:38:03.579248Z"}}